[[{"header":{"parameterUnit":"m.s-1","parameterCategory":1,"la1":30.2991,"la2":30.254,"lo1":-89.0895,"lo2":-89.0444,"dy":0.0017,"dx":0.0017,"nx":28,"ny":28,"refTime":"2025-12-25T09:00:00:Z","depth":0,"parameterNumber":2,"parameterNumberName":"U-component_of_WINDS"},"data":[0,0,0,0,0,0,0,0,0,0,0,0,0,0,0,0,0,0,0,0,0,0,0,0,0,0,0,0,0,0,0,0,0,0,0,0,0,0,0,0,0,0,0,0,0,0,0,0,0,0,0,0,0,0,0,0,0,0,0.9201,0.9201,0,0.925,0.925,0.9251,0.9272,0.9272,0.9272,0.9272,0.9324,0.9326,0.9327,0,0,0,0,0,0,0,0,0,0,0,0,0,0.9129,0.913,0.9201,0.9201,0.9202,0.925,0.925,0.9251,0.9272,0.9272,0.9272,0.9272,0.9324,0.9325,0.9327,0,0,0,0,0,0,0,0,0,0,0,0,0,0.9167,0.9131,0.9201,0.9218,0.922,0.9249,0.925,0.9251,0.9273,0.9272,0.9272,0.9272,0.9323,0.9325,0.9327,0.9343,0,0,0.9334,0.9335,0,0,0,0,0,0,0,0,0.9165,0.917,0.9215,0.9217,0.922,0.9255,0.9244,0.9282,0.9273,0.9253,0.9272,0.9272,0.9301,0.9305,0.9315,0.9345,0.9347,0.9334,0.9335,0.9336,0.9337,0,0,0,0,0,0,0,0.9162,0.9168,0.922,0.9216,0.9219,0.9225,0.923,0.9251,0.9277,0.9255,0.9256,0.9262,0.9303,0.9313,0.9316,0.9348,0.9334,0.9336,0.9337,0.9338,0.9396,0.9396,0,0,0,0,0,0,0.9157,0.9166,0.9219,0.9222,0.9192,0.9226,0.9232,0.9244,0.9277,0.9282,0.9262,0.9262,0.9309,0.9314,0.9318,0.9339,0.9336,0.9338,0.934,0.9396,0.9396,0.9396,0,0,0,0,0,0,0.9155,0.9161,0.9217,0.9194,0.9202,0.9228,0.924,0.9245,0.9255,0.9282,0.9287,0.9267,0.9309,0.9315,0.9337,0.9341,0.9339,0.9341,0.9396,0.9396,0.9396,0.9381,0,0,0,0,0,0,0.9153,0.916,0.9166,0.9194,0.9203,0.9233,0.9241,0.9246,0.9258,0.926,0.9289,0.9293,0.9309,0.9333,0.9339,0.9344,0.9343,0.9395,0.9396,0.9396,0.9382,0.9381,0.9381,0,0,0,0,0,0.915,0.9159,0.9166,0.9172,0.921,0.9234,0.9239,0.9257,0.9258,0.9265,0.9283,0.9292,0.934,0.9335,0.9342,0.9348,0.9395,0.9396,0.9396,0.9382,0.9381,0.9381,0,0,0,0,0,0,0.9131,0.9163,0.9171,0.9189,0.9209,0.9237,0.9245,0.9255,0.9275,0.9275,0.9297,0.9304,0.9324,0.9338,0.9333,0.9366,0.9369,0.937,0.9355,0.9355,0.9355,0.9351,0.9345,0,0,0,0,0,0.9129,0.9145,0.9173,0.9186,0.9196,0.9219,0.923,0.9242,0.9263,0.9272,0.9291,0.9312,0.9332,0.9344,0.9364,0.9384,0.9392,0.9392,0.9391,0.9391,0.9392,0.9406,0.9406,0.9398,0.9398,0.9398,0,0,0.9124,0.9144,0.9153,0.9183,0.9199,0.9216,0.9225,0.9243,0.9256,0.9274,0.9296,0.9312,0.9337,0.9358,0.9368,0.937,0.9396,0.9392,0.9391,0.9393,0.9406,0.9407,0.9408,0.9399,0.9398,0.9398,0,0,0.9125,0.9142,0.9155,0.9172,0.9197,0.9212,0.9216,0.9244,0.9254,0.9277,0.9291,0.9308,0.9341,0.9359,0.9372,0.9382,0.9393,0.9388,0.9386,0.9399,0.94,0.94,0.9405,0.9406,0.939,0.939,0.939,0,0.9117,0.9142,0.9161,0.9178,0.9192,0.9209,0.9224,0.924,0.927,0.9279,0.9281,0.9325,0.9343,0.9369,0.9372,0.9382,0.9387,0.9385,0.9398,0.9399,0.94,0.9404,0.9406,0.9389,0.9389,0.9389,0.9389,0,0.9132,0.9149,0.9158,0.9186,0.9201,0.9217,0.9239,0.9252,0.9264,0.928,0.9303,0.9326,0.9351,0.9358,0.9369,0.9387,0.9388,0.9393,0.9397,0.94,0.9404,0.9406,0.9388,0.9388,0.9388,0.9389,0,0,0.912,0.916,0.9163,0.9177,0.9207,0.9221,0.9239,0.9264,0.9275,0.9296,0.9312,0.934,0.9347,0.9362,0.9376,0.9387,0.9395,0.9392,0.9393,0.9392,0.9417,0.9413,0.9414,0.9402,0.9403,0.9403,0.9415,0,0.9126,0.9157,0.9175,0.92,0.9217,0.9235,0.9251,0.9272,0.9288,0.9306,0.9324,0.9344,0.935,0.936,0.9372,0.9391,0.94,0.9391,0.9418,0.9419,0.9412,0.9417,0.9411,0.9422,0.9417,0.9418,0.9418,0,0.9136,0.9156,0.9182,0.9211,0.9219,0.9233,0.9258,0.9275,0.9299,0.931,0.9328,0.9342,0.9363,0.9365,0.9395,0.9388,0.9401,0.9413,0.9414,0.9417,0.9418,0.942,0.9426,0.9427,0.9421,0.9421,0.942,0,0.9126,0.916,0.918,0.9192,0.9226,0.9235,0.925,0.9275,0.9289,0.9311,0.9321,0.9346,0.9359,0.9379,0.94,0.9399,0.9428,0.9432,0.9439,0.9439,0.9444,0.9443,0.9452,0.9452,0.9452,0.9452,0.9452,0,0.913,0.9145,0.9176,0.9189,0.9207,0.9229,0.9247,0.9264,0.9286,0.9303,0.9321,0.9337,0.9363,0.9383,0.94,0.9423,0.9429,0.944,0.9444,0.9438,0.9437,0.9447,0.9447,0.9452,0.9452,0.9452,0.9452,0,0.9121,0.9143,0.9166,0.9197,0.9206,0.9218,0.9245,0.9259,0.9277,0.9298,0.9305,0.9332,0.9357,0.938,0.9413,0.9424,0.9448,0.9453,0.9439,0.9441,0.9448,0.9447,0.9463,0.9466,0.9464,0.9464,0.9464,0,0.9122,0.9134,0.9167,0.918,0.9194,0.9214,0.9229,0.9252,0.9267,0.9297,0.9308,0.9333,0.9355,0.9394,0.9417,0.9443,0.945,0.9453,0.9453,0.9448,0.9451,0.945,0.9452,0.9453,0.9453,0.9453,0.9453,0,0.9122,0.9132,0.9153,0.9177,0.9194,0.9215,0.9236,0.9246,0.9273,0.929,0.9315,0.9332,0.9365,0.9391,0.942,0.9437,0.945,0.9453,0.9456,0.945,0.9441,0.9447,0.9438,0.9452,0.9452,0.9452,0.9452,0.9452,0.9119,0.9131,0.9156,0.9179,0.9198,0.9218,0.9232,0.9252,0.9273,0.9302,0.9315,0.9341,0.9368,0.9407,0.9424,0.9446,0.9449,0.9453,0.9454,0.9455,0.9454,0.9438,0.9451,0.9451,0.9451,0.9451,0.9451,0,0.912,0.9137,0.9158,0.9188,0.9206,0.9216,0.9241,0.9256,0.9278,0.9302,0.9323,0.9353,0.9379,0.9405,0.9433,0.9445,0.9452,0.9451,0.9451,0.9455,0.945,0.9444,0.9446,0.9446,0.9446,0.9446,0.9446,0.9446,0.9122,0.9144,0.9158,0.9191,0.9209,0.9233,0.9247,0.9266,0.9285,0.9318,0.9339,0.9356,0.9381,0.9411,0.9436,0.9443,0.9453,0.9451,0.946,0.9455,0.9455,0.9455,0.945,0.9453,0.9453,0.9464,0.9464,0.9464]},{"header":{"parameterUnit":"m.s-1","parameterCategory":1,"la1":30.2991,"la2":30.254,"lo1":-89.0895,"lo2":-89.0444,"dy":0.0017,"dx":0.0017,"nx":28,"ny":28,"refTime":"2025-12-25T09:00:00:Z","depth":0,"parameterNumber":3,"parameterNumberName":"V-component_of_WINDS"},"data":[0,0,0,0,0,0,0,0,0,0,0,0,0,0,0,0,0,0,0,0,0,0,0,0,0,0,0,0,0,0,0,0,0,0,0,0,0,0,0,0,0,0,0,0,0,0,0,0,0,0,0,0,0,0,0,0,0,0,0.3735,0.3735,0,0.3697,0.3696,0.3696,0.3686,0.3686,0.3687,0.3687,0.3646,0.3644,0.3643,0,0,0,0,0,0,0,0,0,0,0,0,0,0.3799,0.3798,0.3735,0.3735,0.3734,0.3697,0.3696,0.3696,0.3686,0.3686,0.3687,0.3687,0.3646,0.3645,0.3643,0,0,0,0,0,0,0,0,0,0,0,0,0,0.3767,0.3797,0.3735,0.3725,0.3724,0.3697,0.3696,0.3696,0.3686,0.3686,0.3687,0.3687,0.3647,0.3645,0.3643,0.3623,0,0,0.3637,0.3636,0,0,0,0,0,0,0,0,0.3769,0.3765,0.3727,0.3726,0.3724,0.3697,0.3704,0.3671,0.3686,0.37,0.3687,0.3687,0.3662,0.3659,0.3651,0.3621,0.3619,0.3636,0.3635,0.3634,0.3634,0,0,0,0,0,0,0,0.3771,0.3766,0.372,0.3726,0.3725,0.3722,0.3718,0.3697,0.368,0.3699,0.3698,0.3694,0.3661,0.3653,0.365,0.3618,0.3636,0.3635,0.3633,0.3633,0.357,0.3569,0,0,0,0,0,0,0.3775,0.3768,0.3721,0.3719,0.3748,0.372,0.3716,0.3705,0.368,0.3676,0.3694,0.3694,0.3656,0.3652,0.3648,0.3623,0.3634,0.3632,0.3631,0.357,0.3569,0.3569,0,0,0,0,0,0,0.3777,0.3771,0.3723,0.3743,0.3737,0.3719,0.3707,0.3704,0.3695,0.3676,0.3672,0.3688,0.3656,0.3651,0.3629,0.3621,0.3632,0.363,0.3571,0.357,0.3569,0.3572,0,0,0,0,0,0,0.3778,0.3772,0.3764,0.3743,0.3736,0.3705,0.3706,0.3703,0.3692,0.3692,0.367,0.3666,0.3656,0.3632,0.3627,0.3619,0.3628,0.3571,0.357,0.3569,0.3573,0.3572,0.3571,0,0,0,0,0,0.3781,0.3766,0.3764,0.3758,0.3726,0.3704,0.37,0.3689,0.3692,0.3684,0.3671,0.3667,0.3623,0.363,0.3624,0.3615,0.3572,0.3571,0.357,0.3573,0.3572,0.3571,0,0,0,0,0,0,0.3787,0.3763,0.376,0.3739,0.3724,0.3703,0.3693,0.3688,0.3672,0.3672,0.3658,0.3653,0.3632,0.3622,0.363,0.3594,0.3597,0.3595,0.3602,0.3601,0.36,0.3603,0.3627,0,0,0,0,0,0.3785,0.377,0.3751,0.3733,0.3726,0.3711,0.3701,0.3694,0.3677,0.367,0.3656,0.364,0.3622,0.3611,0.3594,0.3571,0.3566,0.3562,0.3561,0.3561,0.3559,0.3545,0.3543,0.3565,0.3565,0.3566,0,0,0.3783,0.3768,0.3759,0.3734,0.3722,0.3705,0.3705,0.3688,0.3676,0.3668,0.3646,0.3635,0.3616,0.3594,0.3583,0.3584,0.3551,0.3559,0.3559,0.3557,0.3544,0.3542,0.354,0.3565,0.3565,0.3565,0,0,0.377,0.3757,0.3742,0.3729,0.371,0.37,0.3696,0.3676,0.3668,0.3647,0.364,0.3625,0.3595,0.3582,0.3571,0.3553,0.3548,0.3547,0.3542,0.353,0.3528,0.3526,0.3519,0.3517,0.3546,0.3546,0.3546,0,0.3768,0.3744,0.3734,0.3717,0.3706,0.3698,0.3682,0.367,0.3646,0.3639,0.364,0.3603,0.3589,0.3563,0.3559,0.3551,0.3545,0.355,0.3529,0.3527,0.3526,0.3519,0.3516,0.3546,0.3546,0.3546,0.3546,0,0.3744,0.3727,0.3717,0.3694,0.3682,0.3666,0.3652,0.3641,0.3635,0.3624,0.3602,0.3586,0.3565,0.3558,0.3552,0.3532,0.3533,0.3532,0.3535,0.3524,0.3517,0.3515,0.3546,0.3546,0.3546,0.3546,0,0,0.3733,0.3705,0.3701,0.3691,0.367,0.3656,0.3639,0.362,0.361,0.3594,0.3579,0.3554,0.3553,0.3541,0.3533,0.3522,0.3508,0.3522,0.3522,0.352,0.3484,0.3484,0.3481,0.3505,0.3505,0.3504,0.3485,0,0.3717,0.3687,0.3677,0.3651,0.3636,0.3628,0.3613,0.3598,0.3588,0.3573,0.3561,0.3543,0.3544,0.3536,0.3525,0.3512,0.3501,0.3513,0.349,0.349,0.3495,0.3478,0.3479,0.3462,0.3483,0.3482,0.3482,0,0.3694,0.3678,0.3651,0.3632,0.3625,0.3612,0.3593,0.3578,0.3561,0.3554,0.3541,0.3534,0.3515,0.3519,0.3493,0.3502,0.3492,0.3484,0.3483,0.348,0.3485,0.3474,0.3456,0.3453,0.3478,0.3478,0.3478,0,0.3688,0.366,0.364,0.3632,0.3609,0.3599,0.3589,0.3572,0.3561,0.3544,0.3537,0.3518,0.3507,0.3492,0.348,0.3484,0.3455,0.3458,0.3448,0.3448,0.3442,0.3442,0.3421,0.3436,0.3436,0.3436,0.3436,0,0.3671,0.3655,0.3638,0.3625,0.3607,0.3595,0.3577,0.3566,0.3551,0.3536,0.3529,0.3515,0.35,0.3484,0.3474,0.3453,0.3449,0.3442,0.344,0.3443,0.3444,0.3436,0.3437,0.3435,0.3436,0.3436,0.3436,0,0.3662,0.3649,0.3627,0.3607,0.3602,0.3589,0.3571,0.3559,0.3549,0.353,0.3525,0.3508,0.3489,0.3475,0.3451,0.3444,0.3422,0.3419,0.3428,0.3426,0.3417,0.3418,0.339,0.3385,0.3404,0.3404,0.3403,0,0.3651,0.3639,0.3617,0.3607,0.3597,0.3581,0.3569,0.3557,0.3545,0.3525,0.3515,0.3495,0.3479,0.3448,0.3433,0.3414,0.3411,0.3403,0.3408,0.3411,0.341,0.3411,0.341,0.3402,0.3401,0.3401,0.3401,0,0.3634,0.3629,0.3613,0.3595,0.3581,0.3566,0.3551,0.3543,0.3528,0.3515,0.3496,0.3483,0.3458,0.3438,0.3418,0.3406,0.3401,0.34,0.3396,0.3399,0.3404,0.3401,0.3425,0.34,0.34,0.34,0.34,0.3401,0.3624,0.3612,0.3595,0.3578,0.3565,0.3551,0.3538,0.3527,0.351,0.3489,0.3483,0.3462,0.3445,0.3417,0.3405,0.3389,0.3389,0.3384,0.3383,0.3382,0.3382,0.3407,0.3385,0.3385,0.3385,0.3385,0.3385,0,0.3606,0.3595,0.3579,0.3558,0.3544,0.3541,0.3524,0.3512,0.3495,0.3479,0.3463,0.344,0.3421,0.3405,0.3385,0.3375,0.3372,0.337,0.3371,0.3368,0.3383,0.3388,0.3373,0.3373,0.3373,0.3373,0.3373,0.3373,0.3595,0.3575,0.3568,0.3541,0.353,0.351,0.3501,0.3488,0.3475,0.3451,0.3435,0.3425,0.3409,0.3387,0.3369,0.3365,0.3358,0.3357,0.3352,0.3366,0.3367,0.3368,0.3373,0.3355,0.3355,0.3338,0.3338,0.3338]}]]